Temperature
29 30 31 31 31 32 31 32 31 31 30 30 29 29 28 28 28 27 26 26 25 25 24 24 24 23 23 22 22 22 21 20 20 20 20 19 19 19 19 19 19 19 18 18
28 30 30 30 31 31 31 32 31 31 30 30 29 28 27 27 27 26 26 25 25 24 24 23 23 22 22 22 22 21 21 20 20 20 19 19 19 19 19 19 18 18 18 18
27 29 29 29 30 30 30 31 31 30 30 29 28 28 26 26 26 26 25 24 24 24 23 23 23 22 22 22 21 21 21 20 20 20 19 19 19 19 19 19 18 18 18 18
26 27 26 28 30 30 30 30 30 30 29 29 27 27 26 25 25 25 24 24 23 23 23 23 22 22 21 21 21 20 20 20 20 19 19 19 18 18 18 18 18 18 18 18
26 26 27 28 29 29 29 28 29 28 28 28 27 26 25 24 24 24 23 23 22 22 22 22 22 21 21 20 20 20 20 19 19 19 18 18 18 18 18 18 18 18 18 17
25 25 25 27 28 29 29 27 27 27 27 27 26 26 25 24 23 23 22 22 22 22 21 21 21 20 20 20 20 19 19 19 19 18 18 18 18 18 18 18 18 17 17 17
24 24 25 26 27 28 26 25 25 25 25 25 24 24 23 22 22 22 22 21 21 21 21 20 20 20 20 19 19 19 19 18 18 18 18 18 18 18 18 17 17 17 17 17
24 24 24 26 26 25 24 24 24 24 23 23 23 23 22 22 21 21 21 21 20 20 20 20 19 19 19 19 18 18 18 18 18 17 17 17 17 17 17 17 17 17 17 17
24 23 24 24 24 23 23 23 23 23 22 22 22 22 22 21 21 21 20 20 20 20 19 19 19 19 18 18 18 18 17 17 17 17 17 17 17 17 17 17 16 16 16 16
23 23 23 23 23 22 22 22 22 22 21 21 21 21 21 20 20 20 20 19 19 19 18 18 18 18 18 18 17 17 17 17 17 17 17 17 17 16 16 16 16 16 16 15
21 22 22 22 22 21 21 21 21 21 21 21 20 20 20 20 19 19 19 19 18 18 18 17 17 17 17 17 17 17 17 16 16 16 16 16 16 16 16 16 16 16 15 15
21 21 21 20 20 20 20 20 20 20 20 20 20 19 19 19 18 18 18 18 18 17 17 17 17 16 16 16 16 16 16 16 16 16 16 16 16 16 15 15 15 15 15 15
20 20 20 19 19 19 19 19 19 19 19 19 18 18 18 17 17 17 17 17 17 17 17 16 16 16 16 16 16 16 16 16 16 16 15 15 15 15 15 15 15 15 15 15
18 18 18 18 18 18 18 18 18 18 18 18 18 17 17 17 17 16 16 16 16 16 16 16 16 15 15 15 15 15 15 15 15 15 15 15 15 15 14 14 14 14 14 14
17 17 17 17 17 17 17 17 17 17 17 17 17 17 16 16 16 16 16 16 15 15 15 15 15 15 15 15 15 15 15 15 15 15 15 15 15 14 14 14 14 14 14 13
16 16 16 17 17 16 17 17 17 17 16 16 16 16 15 15 15 15 15 15 15 15 14 14 14 14 14 14 14 14 14 14 14 14 14 14 14 14 14 14 14 13 13 13
16 16 16 16 16 16 16 16 16 16 15 15 15 15 14 14 14 14 14 14 14 14 14 14 13 13 13 13 14 14 14 14 14 14 14 14 14 14 14 13 13 13 12 12
15 15 15 15 15 15 15 15 15 15 14 14 14 14 14 14 13 13 13 13 13 13 13 13 13 13 13 13 13 13 13 13 13 13 14 14 13 13 13 13 12 12 12 12
14 15 14 14 14 14 14 14 14 14 14 13 13 13 13 13 13 13 13 13 12 12 12 12 12 12 12 12 13 13 13 13 13 13 13 13 13 13 12 12 12 12 12 11
14 14 14 14 13 13 13 13 13 13 13 13 13 13 13 12 12 12 12 12 12 12 12 12 12 12 12 12 12 12 13 13 13 12 12 12 12 12 12 12 12 12 11 11
14 14 14 13 13 13 13 13 12 12 12 12 12 12 12 12 12 12 12 12 11 11 11 11 11 11 11 12 12 12 12 12 12 12 12 12 12 12 12 11 11 11 11 11
13 13 13 13 12 12 12 12 12 12 12 12 12 12 12 12 12 12 11 11 11 11 11 11 11 11 11 11 11 11 11 12 12 12 11 11 11 11 11 11 11 11 11 11
12 12 12 12 12 12 11 11 12 12 12 11 11 11 11 11 11 11 11 11 11 11 11 11 11 11 11 11 11 11 11 11 11 11 11 11 11 11 11 11 11 10 10 10
12 12 12 11 12 11 11 11 11 11 11 11 11 11 11 11 11 11 11 11 11 11 11 11 11 11 11 11 11 11 11 11 11 11 11 11 11 11 11 10 10 10 10 9
11 11 11 11 11 11 11 11 11 11 11 12 12 12 11 11 11 11 11 11 11 11 11 11 11 11 11 10 10 10 11 11 10 10 10 10 10 10 10 10 9 9 9 9
11 11 11 11 11 11 12 12 12 12 12 12 12 12 11 11 11 11 11 11 10 11 11 10 10 10 10 10 10 10 10 10 10 10 10 10 9 9 9 9 9 9 8 8
12 11 11 11 11 11 12 12 12 12 12 12 11 11 11 11 11 11 10 10 10 10 10 10 10 10 10 10 10 9 9 9 9 9 9 9 9 9 9 8 8 8 8 7
Wind_Speed
13 14 14 12 12 12 13 13 13 8 5 4 5 5 4 6 7 6 6 4 4 6 5 5 5 4 5 5 5 5 5 5 5 5 4 4 5 4 4 4 5 4 3 3
14 15 15 16 14 13 13 12 12 9 4 3 4 6 3 4 7 6 5 4 4 5 5 4 5 4 4 4 4 5 5 5 5 5 4 4 4 4 4 4 4 3 3 3
13 13 14 16 12 11 10 8 9 10 4 3 3 5 5 3 4 5 4 4 3 3 3 3 4 4 4 3 3 4 4 4 4 4 4 4 4 4 4 4 3 3 4 4
11 12 15 9 7 9 9 8 7 4 1 1 3 4 4 4 3 3 4 3 3 2 2 3 4 4 4 4 3 4 4 4 4 4 4 4 4 4 4 3 4 4 4 4
10 14 13 9 7 7 8 8 6 3 2 1 2 2 4 5 3 3 3 3 2 1 0 1 2 2 3 2 3 3 4 4 3 4 4 4 4 3 3 3 4 4 4 4
11 13 12 5 5 7 7 7 4 4 3 3 1 3 2 4 2 2 3 2 1 1 1 1 1 1 1 1 1 2 2 2 2 2 3 4 4 3 3 3 4 4 4 4
14 14 9 5 5 7 8 3 5 5 5 4 4 3 2 2 1 2 1 1 1 1 1 1 1 1 1 1 1 1 1 2 2 3 3 3 3 3 3 4 4 4 4 4
11 13 8 5 4 3 3 4 5 5 5 5 5 4 2 2 2 1 1 0 0 0 1 1 1 2 1 1 1 1 2 3 3 3 4 4 3 4 4 5 5 4 4 3
5 4 3 5 4 4 3 4 4 4 4 4 5 4 3 2 2 2 1 1 1 0 0 1 1 2 2 1 1 2 2 3 3 3 4 4 4 5 5 4 4 4 3 3
6 4 4 5 4 4 5 5 5 4 4 5 5 5 4 2 2 2 1 1 1 0 1 1 0 0 1 1 1 2 3 3 3 4 4 3 3 3 3 3 3 3 3 3
6 5 5 5 6 6 6 6 6 6 5 5 5 4 4 3 2 2 2 1 1 1 1 1 1 1 1 1 1 3 3 3 4 4 4 2 2 0 1 1 2 3 3 2
7 5 6 6 6 6 6 7 7 7 7 6 5 5 4 4 4 3 2 1 1 1 2 2 2 2 1 1 2 3 3 3 3 3 2 2 2 1 5 2 1 0 1 2
8 8 7 7 8 8 7 8 7 7 7 6 5 5 4 4 4 3 3 2 2 3 2 2 2 2 1 1 2 3 4 3 3 3 2 2 2 3 1 2 4 4 2 2
8 8 8 7 7 8 8 8 7 7 6 5 4 4 4 4 5 4 3 4 4 3 2 2 1 2 2 2 2 2 3 2 2 2 2 2 2 3 3 3 2 0 2 3
8 8 9 9 8 8 9 8 7 7 6 5 4 3 3 4 4 4 3 3 4 3 2 1 1 2 2 2 2 3 2 2 2 2 2 2 2 2 2 2 2 1 1 1
9 9 9 8 8 8 8 7 7 6 5 5 4 2 2 3 3 2 2 2 2 3 2 2 2 2 2 1 2 2 1 2 1 2 2 1 1 1 1 2 1 1 1 1
8 9 8 8 8 8 7 6 5 5 4 4 3 2 2 2 1 1 1 1 2 2 2 2 2 2 2 2 2 2 2 2 1 2 2 1 1 1 1 1 1 1 2 2
8 7 7 7 6 6 6 5 4 3 3 4 3 2 1 1 1 0 1 2 2 3 3 2 3 2 2 2 2 2 2 0 1 1 1 1 1 1 0 0 0 1 1 2
6 5 4 5 5 5 4 3 1 1 2 2 1 1 0 0 1 1 2 2 2 1 2 3 3 2 2 3 2 1 1 1 1 1 1 1 1 1 1 1 1 0 0 1
4 4 3 3 3 3 2 2 1 1 1 1 0 0 1 1 1 2 2 1 1 2 2 2 1 1 2 2 3 2 1 1 0 0 0 0 1 1 0 0 0 0 0 1
4 4 3 3 3 3 3 2 1 0 0 0 1 1 1 1 1 1 1 1 2 3 2 2 1 2 2 2 2 2 1 1 1 1 0 0 1 1 1 0 0 0 0 0
4 4 4 4 4 4 3 3 2 2 1 1 1 1 1 1 1 2 2 2 2 3 2 2 2 3 4 3 2 2 2 1 1 1 1 0 0 1 1 1 0 0 1 1
4 4 3 3 3 3 3 3 2 2 2 2 1 1 1 1 1 1 2 2 2 2 2 2 3 4 3 2 2 2 2 2 2 1 1 1 1 1 1 1 1 2 2 2
3 2 2 2 2 2 2 2 2 1 2 2 1 1 2 2 2 2 3 4 4 3 3 4 3 2 2 1 1 2 2 3 3 2 1 1 2 2 3 3 3 3 3 3
2 2 1 1 0 0 1 0 0 1 2 1 2 2 2 2 2 3 3 3 4 3 3 3 1 0 1 2 3 3 3 3 4 4 4 3 3 2 3 3 3 3 3 3
0 0 0 0 0 0 1 1 1 1 1 2 2 2 3 3 4 4 3 4 4 4 3 3 2 1 2 2 3 4 3 3 3 3 3 3 3 4 4 4 4 3 3 3
1 1 1 1 1 1 1 2 2 2 2 3 3 3 3 4 4 4 5 4 4 3 3 3 3 3 3 3 3 4 4 4 3 4 4 4 4 4 5 5 5 4 4 5
Wind_Direction
271 276 278 272 266 265 264 267 270 263 227 189 132 126 141 134 121 110 98 86 87 103 111 117 119 123 136 148 152 161 164 177 181 186 190 194 198 201 199 201 214 219 225 225
269 265 269 270 266 263 263 267 265 263 232 181 131 116 113 117 120 122 118 113 97 97 112 121 124 133 135 149 151 153 166 180 179 183 194 200 200 194 196 198 211 209 217 229
270 272 273 264 264 270 273 274 272 269 248 169 136 115 115 96 104 122 124 112 99 106 126 136 144 141 150 148 154 162 172 180 182 182 194 199 205 197 202 205 209 207 216 221
266 269 260 261 272 268 270 277 287 302 209 135 121 118 117 100 94 109 101 97 101 105 149 165 157 157 156 164 168 179 184 188 186 190 194 194 200 201 201 203 206 210 220 223
261 259 257 260 268 274 273 277 302 307 310 156 120 131 136 122 121 100 95 80 73 68 56 94 120 130 137 168 187 196 194 189 182 189 197 198 203 199 196 203 210 212 218 224
254 261 260 268 301 303 279 258 323 341 333 320 270 234 150 108 114 93 86 77 33 9 49 91 72 92 131 192 192 201 199 187 178 193 202 201 200 199 203 215 218 217 217 217
248 256 261 304 310 293 268 298 13 8 1 360 9 1 15 40 59 99 92 93 35 6 76 115 112 118 175 237 224 237 236 213 204 212 221 213 203 206 210 217 219 219 223 220
248 253 257 338 319 312 352 14 6 10 6 2 354 1 6 14 26 33 42 20 53 43 67 113 133 148 190 224 242 248 238 220 218 221 230 225 216 219 216 216 221 218 219 225
273 268 4 11 14 12 5 354 351 346 344 334 325 329 334 356 345 316 321 302 263 18 26 95 129 153 210 225 245 251 243 233 226 226 232 228 221 221 219 219 227 223 220 226
281 277 325 341 339 338 330 322 323 322 322 318 316 325 329 322 301 310 307 313 351 347 309 327 312 259 198 221 237 252 243 237 230 222 227 223 224 229 225 228 234 234 232 229
281 287 297 299 311 314 316 308 304 307 306 310 314 317 324 322 320 303 305 306 317 298 282 299 312 325 328 249 233 253 245 237 241 232 222 211 199 214 227 237 244 240 240 228
282 295 295 298 304 305 302 303 303 304 309 314 319 315 320 320 320 313 306 313 286 274 266 270 287 289 295 295 253 245 244 245 247 240 213 208 173 88 34 23 30 35 202 206
300 302 301 302 305 304 302 300 301 296 297 303 318 317 317 316 313 316 318 322 295 271 267 263 260 273 297 315 293 251 247 241 243 242 221 208 190 186 186 40 39 44 71 109
323 319 309 303 297 304 300 297 297 295 297 300 297 298 309 316 312 314 314 304 300 296 298 301 308 318 334 325 305 273 254 232 239 239 224 206 205 215 204 193 189 178 50 101
304 302 298 295 291 293 293 291 288 294 296 296 291 294 306 306 302 308 315 311 315 311 323 337 343 346 347 323 299 282 261 242 242 245 236 226 213 213 204 192 194 169 122 73
299 296 290 289 291 290 287 287 285 286 289 292 292 298 301 294 293 322 326 334 316 311 347 13 19 12 352 321 293 268 241 256 254 264 260 220 213 223 214 205 189 139 129 126
286 286 291 294 294 297 300 297 292 293 300 302 305 301 289 278 285 344 345 355 346 8 41 49 20 5 357 344 294 263 242 222 220 253 250 235 223 230 224 209 167 151 153 155
285 287 293 295 299 300 302 301 295 297 311 312 312 315 304 303 306 342 33 39 46 39 34 42 34 10 358 358 331 307 302 290 255 275 295 347 312 309 345 31 113 147 140 146
301 300 310 322 318 320 325 324 323 323 329 317 312 324 346 57 7 45 57 62 54 29 20 27 24 6 359 14 352 298 301 311 309 313 328 37 14 12 17 31 49 46 95 150
315 320 322 316 322 328 331 346 342 348 335 317 274 328 47 59 61 81 94 84 51 26 15 23 19 1 353 7 342 295 289 294 320 306 354 56 72 59 33 23 45 193 180 161
347 344 347 359 19 23 15 1 7 8 308 184 148 130 104 68 63 88 91 63 53 40 33 34 34 10 8 9 334 334 349 7 48 71 83 136 144 147 168 71 349 289 76 60
0 2 15 37 41 36 21 5 13 29 46 64 104 130 144 140 127 100 78 64 69 56 40 32 36 33 15 5 11 16 17 25 19 13 43 57 112 110 58 22 349 13 58 74
357 5 17 26 38 44 29 15 20 39 70 89 104 117 103 70 88 108 103 92 99 78 54 32 40 55 19 360 19 22 16 15 20 31 48 34 24 40 55 50 35 27 29 40
348 351 8 14 42 57 34 14 33 71 90 93 100 99 105 100 90 90 99 112 104 100 75 62 64 48 324 322 356 18 29 27 18 25 40 45 51 51 49 50 45 37 34 33
336 335 349 7 26 125 132 135 101 112 120 94 95 112 117 103 102 94 94 89 102 104 85 78 102 345 354 16 34 36 36 34 26 23 30 28 36 53 60 48 37 33 33 31
310 268 124 158 309 291 183 164 132 96 94 95 86 79 79 90 100 98 97 95 83 69 66 70 78 86 50 39 39 37 36 48 48 32 29 30 29 29 40 47 44 41 39 39
186 131 121 122 118 102 72 65 61 56 66 74 77 74 77 83 86 84 84 84 86 75 63 60 54 54 53 48 45 39 36 38 32 28 29 32 37 40 40 45 44 40 38 40
Height
1459 1454 1451 1452 1451 1449 1451 1452 1457 1457 1458 1457 1459 1461 1465 1465 1468 1471 1475 1478 1480 1482 1485 1487 1489 1491 1494 1496 1498 1500 1501 1503 1504 1506 1507 1509 1510 1511 1511 1512 1513 1513 1514 1514
1464 1456 1453 1453 1448 1448 1448 1448 1449 1452 1457 1455 1458 1463 1467 1468 1469 1473 1475 1479 1481 1483 1485 1487 1489 1491 1493 1495 1496 1498 1499 1501 1502 1504 1505 1506 1507 1508 1509 1509 1510 1511 1511 1511
1471 1458 1457 1461 1451 1450 1450 1447 1450 1455 1455 1455 1460 1463 1468 1470 1471 1474 1476 1479 1481 1483 1485 1486 1488 1490 1492 1493 1495 1496 1497 1499 1500 1501 1502 1503 1504 1505 1505 1506 1507 1507 1508 1508
1471 1470 1480 1458 1445 1446 1449 1449 1448 1451 1454 1457 1461 1465 1468 1471 1473 1475 1478 1479 1481 1483 1485 1486 1488 1489 1490 1492 1493 1494 1495 1496 1498 1498 1499 1500 1501 1501 1502 1503 1503 1503 1504 1504
1474 1474 1467 1455 1449 1449 1452 1455 1452 1454 1456 1459 1462 1464 1469 1472 1473 1476 1478 1480 1481 1482 1484 1485 1486 1487 1489 1490 1491 1492 1493 1494 1494 1495 1496 1496 1497 1498 1498 1499 1500 1500 1500 1501
1473 1478 1476 1462 1452 1450 1452 1460 1457 1458 1460 1461 1462 1465 1470 1472 1473 1475 1477 1479 1480 1481 1482 1483 1484 1485 1486 1488 1488 1489 1489 1490 1491 1492 1493 1493 1494 1494 1495 1496 1496 1496 1497 1497
1472 1474 1467 1458 1454 1454 1466 1468 1462 1462 1464 1465 1466 1468 1471 1472 1473 1474 1476 1477 1478 1480 1480 1481 1482 1483 1484 1485 1485 1486 1487 1488 1488 1489 1490 1490 1491 1492 1492 1492 1493 1493 1493 1493
1469 1473 1474 1460 1458 1463 1467 1465 1465 1466 1467 1468 1468 1469 1470 1471 1471 1473 1474 1476 1477 1478 1479 1479 1480 1480 1481 1482 1483 1483 1484 1484 1485 1486 1487 1487 1487 1488 1489 1489 1489 1489 1489 1489
1466 1468 1465 1464 1464 1466 1467 1467 1468 1468 1468 1470 1470 1470 1470 1470 1472 1472 1473 1474 1475 1476 1477 1477 1478 1478 1479 1479 1480 1481 1481 1481 1482 1483 1483 1484 1484 1485 1486 1486 1486 1486 1486 1485
1464 1463 1465 1466 1467 1468 1469 1469 1469 1469 1469 1470 1469 1469 1469 1470 1470 1471 1472 1472 1473 1474 1475 1475 1476 1476 1476 1476 1477 1477 1477 1478 1478 1479 1479 1480 1481 1482 1482 1482 1482 1482 1482 1482
1467 1467 1467 1468 1469 1469 1469 1469 1469 1469 1469 1469 1469 1468 1469 1469 1469 1470 1470 1470 1471 1472 1472 1473 1473 1473 1473 1473 1474 1474 1474 1475 1475 1476 1476 1477 1477 1477 1478 1478 1479 1479 1479 1478
1468 1468 1469 1469 1468 1469 1469 1469 1469 1469 1468 1468 1468 1468 1468 1468 1468 1468 1468 1468 1469 1469 1470 1470 1470 1470 1470 1471 1471 1471 1471 1471 1472 1473 1473 1473 1473 1473 1474 1475 1475 1475 1476 1476
1469 1468 1468 1468 1468 1468 1468 1468 1468 1468 1467 1467 1467 1467 1467 1467 1467 1466 1466 1466 1467 1467 1468 1468 1468 1468 1467 1468 1468 1468 1468 1469 1469 1470 1470 1470 1470 1470 1470 1471 1471 1472 1472 1472
1469 1469 1467 1467 1467 1467 1467 1466 1465 1465 1465 1465 1465 1465 1465 1465 1466 1465 1465 1465 1465 1465 1465 1465 1465 1465 1465 1465 1465 1465 1465 1466 1466 1467 1467 1467 1467 1468 1468 1467 1468 1468 1468 1468
1468 1468 1467 1466 1465 1464 1464 1464 1463 1462 1463 1463 1463 1463 1463 1464 1464 1464 1464 1463 1463 1463 1463 1462 1462 1462 1462 1462 1462 1462 1463 1463 1464 1464 1465 1465 1464 1465 1465 1465 1465 1465 1464 1465
1466 1466 1465 1463 1462 1462 1461 1461 1460 1460 1460 1461 1461 1461 1462 1462 1462 1462 1462 1462 1461 1461 1460 1460 1459 1459 1460 1460 1460 1460 1460 1461 1461 1462 1462 1462 1462 1463 1463 1463 1463 1463 1463 1463
1464 1463 1461 1460 1459 1458 1457 1457 1457 1457 1458 1458 1458 1459 1459 1460 1460 1460 1460 1459 1459 1459 1458 1458 1458 1457 1458 1458 1458 1459 1459 1459 1459 1460 1460 1460 1461 1461 1461 1461 1461 1461 1461 1461
1461 1460 1459 1458 1457 1455 1454 1453 1453 1454 1455 1456 1456 1457 1457 1457 1458 1457 1457 1456 1457 1457 1457 1456 1456 1456 1456 1456 1456 1457 1457 1457 1458 1458 1459 1459 1459 1459 1459 1459 1460 1460 1459 1459
1458 1457 1456 1455 1454 1453 1452 1452 1452 1453 1454 1454 1455 1455 1456 1456 1457 1456 1456 1456 1456 1456 1455 1455 1455 1455 1455 1455 1455 1455 1456 1456 1456 1457 1457 1457 1457 1457 1457 1458 1458 1458 1459 1458
1456 1455 1454 1454 1453 1452 1452 1452 1452 1452 1453 1453 1454 1455 1455 1455 1456 1455 1455 1455 1455 1455 1454 1454 1454 1454 1454 1454 1454 1454 1455 1454 1454 1454 1455 1455 1455 1455 1456 1456 1457 1457 1457 1457
1456 1454 1454 1453 1452 1452 1452 1451 1451 1452 1452 1453 1453 1454 1454 1455 1455 1455 1454 1455 1455 1454 1453 1453 1453 1453 1453 1453 1453 1453 1453 1453 1453 1453 1454 1454 1454 1455 1455 1456 1456 1457 1456 1456
1456 1455 1454 1453 1453 1452 1453 1452 1451 1452 1452 1453 1453 1453 1454 1455 1455 1455 1455 1455 1455 1454 1453 1453 1453 1453 1453 1453 1453 1453 1453 1453 1453 1453 1453 1454 1454 1454 1455 1455 1455 1456 1455 1455
1457 1456 1455 1454 1454 1453 1454 1453 1452 1452 1453 1453 1453 1454 1454 1455 1455 1455 1456 1456 1455 1454 1454 1454 1454 1454 1454 1454 1454 1454 1453 1453 1453 1453 1453 1453 1453 1454 1454 1455 1455 1455 1454 1454
1457 1456 1455 1455 1454 1454 1454 1454 1453 1453 1454 1454 1454 1454 1455 1455 1456 1456 1456 1456 1456 1455 1455 1455 1455 1455 1455 1455 1455 1454 1454 1454 1454 1454 1453 1453 1454 1454 1454 1454 1454 1454 1454 1454
1456 1456 1455 1455 1455 1455 1454 1454 1454 1455 1455 1455 1455 1455 1455 1456 1457 1457 1457 1457 1457 1456 1456 1456 1456 1456 1456 1456 1456 1455 1455 1455 1455 1455 1454 1454 1454 1455 1455 1454 1454 1454 1454 1453
1456 1456 1455 1456 1456 1455 1456 1456 1456 1456 1457 1456 1456 1456 1456 1457 1457 1457 1457 1457 1457 1457 1457 1457 1457 1457 1457 1457 1457 1457 1457 1456 1456 1456 1456 1455 1455 1455 1455 1454 1454 1454 1453 1453
1456 1456 1456 1456 1456 1457 1457 1457 1457 1457 1457 1457 1457 1457 1458 1458 1458 1458 1458 1458 1458 1458 1458 1459 1459 1459 1458 1458 1458 1458 1458 1457 1457 1457 1456 1456 1456 1455 1455 1454 1453 1453 1453 1452